Terminal Aerodrome Forecast
Issued by NWS

Home | Current Version | Previous Version | Graphics & Text | Print | Product List | Glossary On
Versions: 1 2 3 4 5 6 7 8 9 10 11 12 13 14 15 16 17 18 19 20 21
432
FTUS43 KDLH 231026 AAB
TAFBRD
TAF AMD
KBRD 231026Z 2310/2406 03011KT P6SM VCSH BKN017 BKN080 OVC100
     FM231100 03007KT 6SM -SHRA OVC015
     FM231700 06009KT P6SM OVC020
     FM232300 06009KT P6SM BKN035
     FM240300 07008KT P6SM BKN025=

USA.gov is the U.S. government's official web portal to all federal, state and local government web resources and services.